W2DEN Weather Reports


Display with metric or nautical units.
time (UTC)temp
F
wind
direction
speed
MPH
gust
MPH
rain 1hr
in
rain 24hr
in
rain mn
in
humidity
%
barometer
mb
20260901165017 91 23 3.0 5.0 0.00 0.00 0.00 63 1018.5
20260901164016 91 23 1.0 2.0 0.00 0.00 0.00 63 1018.6
20260901163017 90 23 2.0 2.0 0.00 0.00 0.00 65 1018.8
20260901162016 91 23 1.0 2.0 0.00 0.00 0.00 64 1018.8
20260901161016 91 90 1.0 2.0 0.00 0.00 0.00 64 1018.9
20260901160016 90 23 1.0 3.0 0.00 0.00 0.00 65 1018.9
20260901155017 89 23 1.0 2.0 0.00 0.00 0.00 67 1019.0
20260901154016 89 0.0 1.0 0.00 0.00 0.00 69 1019.2
20260901153016 88 23 2.0 3.0 0.00 0.00 0.00 68 1019.4
20260901152016 88 0 2.0 3.0 0.00 0.00 0.00 69 1019.3
20260901151016 88 68 1.0 2.0 0.00 0.00 0.00 71 1019.2
20260901150017 87 338 2.0 5.0 0.00 0.00 0.00 70 1019.3
20260901145016 86 23 2.0 3.0 0.00 0.00 0.00 70 1019.3
20260901144016 86 23 1.0 2.0 0.00 0.00 0.00 73 1019.2
20260901143036 86 23 1.0 2.0 0.00 0.00 0.00 77 1019.1
20260901142016 85 45 1.0 2.0 0.00 0.00 0.00 79 1019.1
20260901141016 84 0.0 1.0 0.00 0.00 0.00 81 1019.2
20260901140016 83 0.0 1.0 0.00 0.00 0.00 84 1019.2
20260901135016 83 0 1.0 2.0 0.00 0.00 0.00 85 1019.2
20260901134016 81 0 1.0 2.0 0.00 0.00 0.00 87 1019.1
20260901133016 80 0.0 0.0 0.00 0.00 0.00 88 1019.2
20260901132018 80 0.0 1.0 0.00 0.00 0.00 89 1019.1
20260901131016 79 0.0 1.0 0.00 0.00 0.00 92 1019.1
20260901130017 78 0 1.0 2.0 0.00 0.00 0.00 94 1019.0
20260901125017 76 0.0 1.0 0.00 0.00 0.00 96 1019.1
20260901124017 76 0.0 1.0 0.00 0.00 0.00 97 1019.1
20260901123016 75 68 1.0 3.0 0.00 0.00 0.00 97 1018.9
20260901122016 74 0.0 1.0 0.00 0.00 0.00 97 1018.8
20260901121016 74 0.0 0.0 0.00 0.00 0.00 97 1018.9
20260901120017 73 0.0 0.0 0.00 0.00 0.00 97 1018.8
20260901115017 72 0.0 0.0 0.00 0.00 0.00 97 1018.7
20260901114016 72 0.0 0.0 0.00 0.00 0.00 96 1018.6
20260901113036 71 0.0 0.0 0.00 0.00 0.00 96 1018.3
20260901112036 71 0.0 0.0 0.00 0.00 0.00 96 1018.3
20260901111016 71 0.0 0.0 0.00 0.00 0.00 96 1018.1
20260901110016 71 0.0 0.0 0.00 0.00 0.00 96 1017.9
20260901105016 71 0.0 0.0 0.00 0.00 0.00 96 1017.8
20260901104016 71 0.0 0.0 0.00 0.00 0.00 96 1017.7
20260901103016 71 0.0 0.0 0.00 0.00 0.00 96 1017.6
20260901102016 71 0.0 0.0 0.00 0.00 0.00 96 1017.6
20260901101016 71 0.0 0.0 0.00 0.00 0.00 96 1017.6
20260901100016 71 0.0 0.0 0.00 0.00 0.00 96 1017.6
20260901095017 71 0.0 0.0 0.00 0.00 0.00 96 1017.6
20260901094016 71 0.0 0.0 0.00 0.00 0.00 96 1017.4
20260901093016 71 0.0 0.0 0.00 0.00 0.00 96 1017.4
20260901092016 71 0.0 0.0 0.00 0.00 0.00 96 1017.5
20260901091015 71 0.0 0.0 0.00 0.00 0.00 96 1017.4
20260901090016 71 0.0 0.0 0.00 0.00 0.00 96 1017.4
20260901085016 71 0.0 0.0 0.00 0.00 0.00 96 1017.4
20260901084016 71 0.0 0.0 0.00 0.00 0.00 96 1017.4
20260901083016 71 0.0 0.0 0.00 0.00 0.00 96 1017.5
20260901082016 71 0.0 0.0 0.00 0.00 0.00 96 1017.6
20260901080016 72 0.0 0.0 0.00 0.00 0.00 96 1017.5
20260901075016 72 0.0 0.0 0.00 0.00 0.00 96 1017.6
20260901074037 72 0.0 0.0 0.00 0.00 0.00 96 1017.6
20260901073016 72 0.0 0.0 0.00 0.00 0.00 96 1017.6
20260901072017 72 0.0 0.0 0.00 0.00 0.00 96 1017.6
20260901071016 72 0.0 0.0 0.00 0.00 0.00 96 1017.7
20260901070018 72 0.0 0.0 0.00 0.00 0.00 96 1017.7
20260901065018 72 0.0 0.0 0.00 0.00 0.00 96 1017.9
20260901064038 73 0.0 0.0 0.00 0.00 0.00 96 1017.9
20260901063018 73 0.0 0.0 0.00 0.00 0.00 95 1017.9
20260901062018 73 0.0 0.0 0.00 0.00 0.00 96 1018.0
20260901061018 73 0.0 0.0 0.00 0.00 0.00 95 1018.1
20260901060018 73 0.0 0.0 0.00 0.00 0.00 95 1018.1
20260901055018 73 0.0 0.0 0.00 0.00 0.00 95 1018.1
20260901054017 73 0.0 0.0 0.00 0.00 0.00 95 1018.2
20260901053019 73 0.0 0.0 0.00 0.00 0.00 95 1018.3
20260901052018 73 0.0 0.0 0.00 0.00 0.00 95 1018.4
20260901051019 73 0.0 0.0 0.00 0.00 0.00 95 1018.2
20260901050018 73 0.0 0.0 0.00 0.00 0.00 95 1018.3
20260901045019 74 0.0 0.0 0.00 0.00 0.00 95 1018.4
20260901044017 74 0.0 0.0 0.00 0.00 0.00 95 1018.2
20260901043019 74 0.0 0.0 0.00 0.00 0.00 95 1018.3
20260901042017 74 0.0 0.0 0.00 0.00 0.00 95 1018.5
20260901041018 74 0.0 0.0 0.00 0.00 0.00 95 1018.3
20260901040017 74 0.0 0.0 0.00 0.00 0.00 94 1018.4
20260901035016 75 0.0 0.0 0.00 0.00 0.00 94 1018.5
20260901034016 75 0.0 0.0 0.00 0.00 0.00 94 1018.6
20260901033016 75 0.0 0.0 0.00 0.00 0.00 94 1018.6
20260901032016 75 0.0 0.0 0.00 0.00 0.00 94 1018.6
20260901031036 75 0.0 0.0 0.00 0.00 0.00 94 1018.7
20260901030036 75 0.0 0.0 0.00 0.00 0.00 93 1018.6
20260901025016 75 0.0 0.0 0.00 0.00 0.00 93 1018.7
20260901024017 76 0.0 0.0 0.00 0.00 0.00 93 1018.8
20260901023017 76 0.0 0.0 0.00 0.00 0.00 93 1018.7
20260901022017 76 0.0 0.0 0.00 0.00 0.00 92 1018.7
20260901021036 76 0.0 0.0 0.00 0.00 0.00 92 1018.7
20260901020037 76 0.0 0.0 0.00 0.00 0.00 92 1018.6
20260901015016 76 0.0 0.0 0.00 0.00 0.00 91 1018.5
20260901014016 77 0.0 0.0 0.00 0.00 0.00 91 1018.4
20260901013016 77 0.0 0.0 0.00 0.00 0.00 90 1018.2
20260901012016 77 0.0 0.0 0.00 0.00 0.00 89 1018.0
20260901011016 78 0.0 0.0 0.00 0.00 0.00 89 1018.0
20260901010016 78 0.0 0.0 0.00 0.00 0.00 88 1017.9
20260901005017 78 0.0 0.0 0.00 0.00 0.00 87 1017.9
20260901004043 79 0.0 0.0 0.00 0.00 0.00 87 1017.9
20260901003117 79 0.0 0.0 0.00 0.00 0.00 86 1017.7
20260901002017 80 0.0 0.0 0.00 0.00 0.00 84 1017.7
20260901001017 81 0.0 0.0 0.00 0.00 0.00 82 1017.6
20260901000017 82 0.0 0.0 0.00 0.00 0.00 80 1017.6
20260831235017 83 0.0 0.0 0.00 0.00 0.00 78 1017.5
20260831234016 83 0.0 1.0 0.00 0.00 0.00 77 1017.3
20260831233016 84 0.0 0.0 0.00 0.00 0.00 77 1017.3
20260831232016 84 0.0 1.0 0.00 0.00 0.00 76 1017.5
20260831231017 85 0.0 0.0 0.00 0.00 0.00 75 1017.2
20260831230017 86 0.0 1.0 0.00 0.00 0.00 75 1017.3
20260831225016 86 0.0 1.0 0.00 0.00 0.00 74 1017.3
20260831224016 87 0.0 1.0 0.00 0.00 0.00 72 1017.2
20260831223016 87 0.0 1.0 0.00 0.00 0.00 71 1017.2
20260831222036 87 0.0 2.0 0.00 0.00 0.00 70 1017.1
20260831221036 88 0.0 0.0 0.00 0.00 0.00 68 1017.2
20260831220016 89 0.0 1.0 0.00 0.00 0.00 66 1017.2
20260831215016 90 135 1.0 2.0 0.00 0.00 0.00 63 1017.1
20260831214016 90 0 2.0 2.0 0.00 0.00 0.00 61 1017.1
20260831213016 92 0.0 1.0 0.00 0.00 0.00 59 1017.0
20260831212016 91 135 1.0 1.0 0.00 0.00 0.00 60 1017.1
20260831211016 91 135 1.0 2.0 0.00 0.00 0.00 61 1017.0
20260831210018 91 135 2.0 3.0 0.00 0.00 0.00 60 1017.0
20260831205036 91 23 1.0 1.0 0.00 0.00 0.00 61 1016.9
20260831204016 91 270 3.0 4.0 0.00 0.00 0.00 60 1016.9
20260831203017 91 0 2.0 3.0 0.00 0.00 0.00 61 1017.1
20260831202036 91 90 3.0 5.0 0.00 0.00 0.00 59 1017.0
20260831201016 91 68 1.0 2.0 0.00 0.00 0.00 59 1017.2
20260831200016 91 0.0 1.0 0.00 0.00 0.00 62 1017.4
20260831195016 91 135 2.0 2.0 0.00 0.00 0.00 63 1017.5
20260831194016 91 135 2.0 4.0 0.00 0.00 0.00 64 1017.6
20260831193016 91 90 3.0 6.0 0.00 0.00 0.00 63 1017.8
20260831192016 90 68 2.0 4.0 0.00 0.00 0.00 65 1017.9
20260831191016 90 0.0 1.0 0.00 0.00 0.00 69 1018.0
20260831190017 89 0.0 0.0 0.00 0.00 0.00 70 1018.0
20260831185016 86 0.0 1.0 0.00 0.00 0.00 75 1018.2
20260831184017 85 0.0 0.0 0.00 0.00 0.00 76 1018.6
20260831183016 84 90 1.0 1.0 0.00 0.00 0.00 74 1018.6
20260831182016 85 68 1.0 1.0 0.00 0.00 0.00 74 1018.9
20260831181015 88 68 1.0 3.0 0.00 0.00 0.00 69 1019.0
20260831180016 89 90 2.0 5.0 0.00 0.00 0.00 67 1018.8
20260831175016 86 0.0 1.0 0.00 0.00 0.00 74 1019.0
20260831174036 87 0.0 1.0 0.00 0.00 0.00 72 1019.0
20260831173036 88 23 2.0 3.0 0.00 0.00 0.00 68 1019.1
20260831172016 88 0 1.0 1.0 0.00 0.00 0.00 69 1019.2
20260831171017 88 0.0 1.0 0.00 0.00 0.00 70 1019.5
20260831170015 87 0 1.0 1.0 0.00 0.00 0.00 70 1019.6